[[{"header":{"parameterUnit":"m.s-1","parameterCategory":1,"la1":30.2991,"la2":30.254,"lo1":-89.0895,"lo2":-89.0444,"dy":0.0017,"dx":0.0017,"nx":28,"ny":28,"refTime":"2023-04-22T21:00:00:Z","depth":0,"parameterNumber":2,"parameterNumberName":"U-component_of_WINDS"},"data":[0,0,0,0,0,0,0,0,0,0,0,0,0,0,0,0,0,0,0,0,0,0,0,0,0,0,0,0,0,0,0,0,0,0,0,0,0,0,0,0,0,0,0,0,0,0,0,0,0,0,0,0,0,0,0,0,0,0,-3.4395,-3.4395,0,-3.4418,-3.4418,-3.4418,-3.4273,-3.4269,-3.4264,-3.426,-3.4288,-3.4292,-3.4297,0,0,0,0,0,0,0,0,0,0,0,0,0,-3.4226,-3.423,-3.4395,-3.4395,-3.4395,-3.4418,-3.4418,-3.4418,-3.4273,-3.4268,-3.4263,-3.4259,-3.4286,-3.4292,-3.4297,0,0,0,0,0,0,0,0,0,0,0,0,0,-3.4279,-3.4231,-3.4395,-3.4325,-3.4319,-3.4418,-3.4418,-3.4419,-3.4274,-3.4268,-3.4262,-3.4256,-3.4284,-3.4291,-3.4298,-3.4465,0,0,-3.4319,-3.4322,0,0,0,0,0,0,0,0,-3.4276,-3.4286,-3.4335,-3.433,-3.4324,-3.4336,-3.4368,-3.4434,-3.4276,-3.4292,-3.426,-3.4253,-3.4309,-3.4313,-3.4332,-3.4466,-3.4467,-3.4319,-3.4324,-3.4327,-3.4329,0,0,0,0,0,0,0,-3.4273,-3.4284,-3.4404,-3.4336,-3.4329,-3.4294,-3.4294,-3.438,-3.4335,-3.429,-3.4279,-3.4284,-3.4305,-3.4325,-3.4331,-3.4467,-3.4319,-3.4325,-3.433,-3.4332,-3.4738,-3.4745,0,0,0,0,0,0,-3.4278,-3.4282,-3.4403,-3.4404,-3.4284,-3.4302,-3.4303,-3.4338,-3.4334,-3.4327,-3.4289,-3.4277,-3.4317,-3.4323,-3.4332,-3.4526,-3.4327,-3.4333,-3.4337,-3.4732,-3.474,-3.4747,0,0,0,0,0,0,-3.4275,-3.429,-3.4402,-3.434,-3.4352,-3.4311,-3.4353,-3.4342,-3.4363,-3.4333,-3.4324,-3.4319,-3.4312,-3.4322,-3.4432,-3.4525,-3.4336,-3.4342,-3.4724,-3.4734,-3.4743,-3.4918,0,0,0,0,0,0,-3.4271,-3.429,-3.4353,-3.4343,-3.4356,-3.4503,-3.4358,-3.4347,-3.4374,-3.4359,-3.4358,-3.4352,-3.4308,-3.4423,-3.4439,-3.4531,-3.4348,-3.4715,-3.4728,-3.474,-3.4904,-3.4933,-3.4957,0,0,0,0,0,-3.4265,-3.4402,-3.4357,-3.4373,-3.4433,-3.4508,-3.4516,-3.4461,-3.4383,-3.4446,-3.4426,-3.4352,-3.4512,-3.4435,-3.4452,-3.4548,-3.4709,-3.4725,-3.4739,-3.4892,-3.4927,-3.4957,0,0,0,0,0,0,-3.4427,-3.44,-3.4349,-3.4487,-3.4501,-3.4484,-3.4562,-3.45,-3.4538,-3.4522,-3.4452,-3.4453,-3.4576,-3.4572,-3.4487,-3.4708,-3.4597,-3.4616,-3.4707,-3.474,-3.4767,-3.4766,-3.4353,0,0,0,0,0,-3.4478,-3.454,-3.4514,-3.4638,-3.4647,-3.4604,-3.4634,-3.459,-3.4602,-3.4608,-3.4596,-3.4612,-3.4665,-3.4702,-3.4749,-3.4901,-3.4899,-3.4975,-3.5002,-3.5024,-3.5043,-3.5123,-3.5156,-3.4796,-3.4796,-3.4796,0,0,-3.4586,-3.4578,-3.4622,-3.467,-3.4675,-3.4742,-3.461,-3.4686,-3.4735,-3.462,-3.4723,-3.4715,-3.4727,-3.4859,-3.4917,-3.486,-3.5141,-3.5044,-3.5061,-3.5068,-3.5142,-3.5176,-3.5206,-3.4806,-3.4805,-3.4803,0,0,-3.4816,-3.4816,-3.4919,-3.4927,-3.4936,-3.4906,-3.493,-3.4922,-3.4912,-3.5014,-3.4928,-3.4985,-3.5079,-3.5091,-3.5109,-3.5341,-3.5275,-3.5358,-3.55,-3.5578,-3.5607,-3.5632,-3.5715,-3.5746,-3.5376,-3.5376,-3.5376,0,-3.4949,-3.5045,-3.498,-3.5062,-3.5086,-3.4982,-3.5086,-3.5096,-3.5122,-3.5141,-3.5076,-3.519,-3.5191,-3.5324,-3.538,-3.5398,-3.5425,-3.5359,-3.5608,-3.5632,-3.5654,-3.5733,-3.5765,-3.5386,-3.5385,-3.5384,-3.5383,0,-3.5208,-3.5276,-3.5358,-3.5384,-3.5416,-3.5509,-3.5458,-3.5499,-3.5451,-3.5427,-3.5532,-3.5529,-3.5574,-3.5601,-3.5556,-3.5728,-3.5693,-3.5619,-3.5506,-3.57,-3.5773,-3.5803,-3.5401,-3.5397,-3.5394,-3.5392,0,0,-3.5545,-3.553,-3.5562,-3.5571,-3.5573,-3.5624,-3.5712,-3.5754,-3.579,-3.581,-3.5882,-3.5962,-3.5893,-3.5914,-3.5869,-3.5938,-3.6122,-3.5855,-3.5854,-3.5906,-3.6312,-3.6369,-3.6405,-3.6076,-3.6082,-3.6086,-3.6311,0,-3.577,-3.5919,-3.5862,-3.6015,-3.6077,-3.5977,-3.6053,-3.6062,-3.6042,-3.6092,-3.6069,-3.6127,-3.6031,-3.6043,-3.6106,-3.6086,-3.6203,-3.6069,-3.6144,-3.6148,-3.6147,-3.6443,-3.6504,-3.6717,-3.6339,-3.6344,-3.6347,0,-3.6055,-3.6084,-3.6244,-3.6232,-3.6256,-3.6326,-3.6359,-3.6407,-3.6415,-3.6395,-3.6418,-3.6357,-3.6441,-3.6326,-3.6443,-3.6353,-3.638,-3.6374,-3.6381,-3.6388,-3.6262,-3.646,-3.6783,-3.6816,-3.6391,-3.6388,-3.6385,0,-3.6286,-3.6366,-3.6471,-3.6482,-3.6471,-3.6522,-3.652,-3.6521,-3.655,-3.6579,-3.6596,-3.6635,-3.6658,-3.6689,-3.664,-3.6561,-3.6764,-3.6645,-3.6751,-3.6753,-3.6801,-3.68,-3.7136,-3.6815,-3.6815,-3.6814,-3.6813,0,-3.6546,-3.6648,-3.6574,-3.664,-3.675,-3.6682,-3.6794,-3.6781,-3.6782,-3.6843,-3.6759,-3.6818,-3.6748,-3.6801,-3.6763,-3.6866,-3.6876,-3.6863,-3.6852,-3.6872,-3.6874,-3.6891,-3.6876,-3.6822,-3.6821,-3.6819,-3.6817,0,-3.6825,-3.6779,-3.6888,-3.6867,-3.6864,-3.6947,-3.693,-3.6989,-3.6961,-3.7039,-3.7054,-3.7011,-3.7068,-3.7021,-3.7077,-3.7051,-3.7188,-3.7155,-3.7186,-3.7177,-3.7287,-3.7278,-3.7648,-3.7693,-3.7342,-3.7345,-3.7348,0,-3.6995,-3.707,-3.7057,-3.7091,-3.7094,-3.715,-3.7178,-3.7114,-3.7146,-3.7159,-3.7218,-3.7267,-3.7304,-3.74,-3.7374,-3.7416,-3.7385,-3.7511,-3.7391,-3.7408,-3.7389,-3.7386,-3.7394,-3.7537,-3.7541,-3.7544,-3.7547,0,-3.7302,-3.7275,-3.7318,-3.7353,-3.7389,-3.7413,-3.7432,-3.7464,-3.7398,-3.7439,-3.7496,-3.7524,-3.7579,-3.763,-3.7663,-3.7661,-3.7595,-3.7584,-3.7612,-3.7634,-3.765,-3.7644,-3.7255,-3.7577,-3.7574,-3.7572,-3.757,-3.7569,-3.7533,-3.7595,-3.7595,-3.7646,-3.7652,-3.767,-3.7725,-3.7702,-3.7748,-3.7788,-3.7746,-3.7816,-3.7819,-3.7856,-3.7862,-3.7915,-3.7863,-3.7902,-3.7913,-3.7924,-3.7941,-3.7639,-3.7921,-3.792,-3.7919,-3.7918,-3.7918,0,-3.7837,-3.7832,-3.7878,-3.7905,-3.7945,-3.7875,-3.7891,-3.7929,-3.799,-3.7999,-3.8035,-3.81,-3.8148,-3.8125,-3.8166,-3.8214,-3.8184,-3.8227,-3.8224,-3.8225,-3.7984,-3.7957,-3.825,-3.825,-3.825,-3.825,-3.825,-3.825,-3.8001,-3.8102,-3.8075,-3.8179,-3.8171,-3.8238,-3.8253,-3.8269,-3.8275,-3.8351,-3.839,-3.8373,-3.8369,-3.8409,-3.845,-3.8442,-3.8462,-3.8517,-3.8498,-3.8275,-3.8242,-3.8211,-3.8185,-3.8521,-3.8522,-3.8735,-3.8737,-3.8738]},{"header":{"parameterUnit":"m.s-1","parameterCategory":1,"la1":30.2991,"la2":30.254,"lo1":-89.0895,"lo2":-89.0444,"dy":0.0017,"dx":0.0017,"nx":28,"ny":28,"refTime":"2023-04-22T21:00:00:Z","depth":0,"parameterNumber":3,"parameterNumberName":"V-component_of_WINDS"},"data":[0,0,0,0,0,0,0,0,0,0,0,0,0,0,0,0,0,0,0,0,0,0,0,0,0,0,0,0,0,0,0,0,0,0,0,0,0,0,0,0,0,0,0,0,0,0,0,0,0,0,0,0,0,0,0,0,0,0,-3.1219,-3.1219,0,-3.1238,-3.1239,-3.1239,-3.1196,-3.1195,-3.1193,-3.1192,-3.1211,-3.1213,-3.1215,0,0,0,0,0,0,0,0,0,0,0,0,0,-3.1143,-3.1145,-3.1219,-3.1219,-3.122,-3.1238,-3.1239,-3.1239,-3.1196,-3.1195,-3.1193,-3.1191,-3.121,-3.1213,-3.1215,0,0,0,0,0,0,0,0,0,0,0,0,0,-3.1171,-3.1145,-3.1219,-3.1201,-3.1199,-3.1238,-3.1239,-3.1239,-3.1197,-3.1194,-3.1192,-3.119,-3.121,-3.1212,-3.1215,-3.1273,0,0,-3.1223,-3.1224,0,0,0,0,0,0,0,0,-3.1169,-3.1173,-3.1203,-3.1202,-3.12,-3.1213,-3.1219,-3.125,-3.1197,-3.1198,-3.1192,-3.1189,-3.1213,-3.1215,-3.1224,-3.1274,-3.1275,-3.1223,-3.1225,-3.1226,-3.1227,0,0,0,0,0,0,0,-3.1167,-3.1172,-3.1227,-3.1203,-3.1202,-3.1191,-3.1192,-3.1225,-3.1217,-3.1197,-3.1194,-3.1197,-3.1212,-3.1221,-3.1224,-3.1275,-3.1223,-3.1226,-3.1227,-3.1228,-3.1371,-3.1373,0,0,0,0,0,0,-3.1168,-3.1171,-3.1226,-3.1227,-3.1179,-3.1194,-3.1195,-3.1211,-3.1216,-3.1215,-3.1199,-3.1195,-3.1218,-3.1221,-3.1224,-3.129,-3.1226,-3.1229,-3.123,-3.1369,-3.1371,-3.1374,0,0,0,0,0,0,-3.1166,-3.1173,-3.1225,-3.1198,-3.1204,-3.1197,-3.1215,-3.1212,-3.1221,-3.1217,-3.1216,-3.121,-3.1216,-3.122,-3.1261,-3.129,-3.123,-3.1232,-3.1366,-3.1369,-3.1372,-3.1424,0,0,0,0,0,0,-3.1164,-3.1173,-3.1196,-3.1199,-3.1206,-3.1262,-3.1217,-3.1214,-3.1226,-3.1221,-3.1227,-3.1226,-3.1215,-3.1257,-3.1263,-3.1293,-3.1234,-3.1363,-3.1367,-3.1371,-3.142,-3.1429,-3.1437,0,0,0,0,0,-3.1162,-3.121,-3.1197,-3.1204,-3.1234,-3.1264,-3.1268,-3.1254,-3.1229,-3.1251,-3.1248,-3.1226,-3.1286,-3.1261,-3.1268,-3.1299,-3.1361,-3.1366,-3.1371,-3.1416,-3.1427,-3.1437,0,0,0,0,0,0,-3.121,-3.121,-3.1196,-3.1247,-3.1255,-3.1257,-3.1284,-3.1266,-3.1283,-3.1277,-3.1259,-3.1261,-3.1304,-3.1306,-3.1278,-3.1354,-3.1319,-3.1326,-3.1351,-3.1362,-3.137,-3.1368,-3.1237,0,0,0,0,0,-3.1227,-3.1252,-3.125,-3.1295,-3.13,-3.1292,-3.1304,-3.1293,-3.1301,-3.1305,-3.1305,-3.1314,-3.1334,-3.1348,-3.1368,-3.142,-3.142,-3.1445,-3.1453,-3.146,-3.1466,-3.1491,-3.1502,-3.139,-3.1389,-3.1389,0,0,-3.1262,-3.1264,-3.1281,-3.1305,-3.131,-3.1335,-3.1295,-3.1324,-3.1342,-3.1309,-3.1346,-3.1347,-3.1355,-3.1401,-3.1422,-3.1404,-3.1497,-3.1466,-3.1472,-3.1474,-3.1497,-3.1508,-3.1518,-3.1393,-3.1392,-3.1392,0,0,-3.1337,-3.1342,-3.1379,-3.1385,-3.1394,-3.1387,-3.1396,-3.14,-3.1399,-3.1436,-3.1411,-3.1432,-3.1469,-3.1475,-3.1483,-3.1559,-3.1538,-3.1566,-3.1609,-3.1635,-3.1643,-3.1651,-3.1676,-3.1686,-3.1571,-3.1572,-3.1572,0,-3.1378,-3.1416,-3.14,-3.143,-3.144,-3.1411,-3.1447,-3.1454,-3.1469,-3.1476,-3.1456,-3.15,-3.1504,-3.155,-3.1568,-3.1577,-3.1585,-3.1564,-3.1643,-3.1651,-3.1658,-3.1682,-3.1691,-3.1575,-3.1574,-3.1574,-3.1574,0,-3.1465,-3.1491,-3.152,-3.1534,-3.1547,-3.1581,-3.1569,-3.1585,-3.1572,-3.1567,-3.1604,-3.1607,-3.1626,-3.1636,-3.1624,-3.168,-3.1668,-3.1647,-3.1611,-3.1672,-3.1694,-3.1703,-3.1579,-3.1578,-3.1577,-3.1576,0,0,-3.1572,-3.1576,-3.1586,-3.1591,-3.1598,-3.1618,-3.1649,-3.1666,-3.1679,-3.169,-3.1714,-3.1745,-3.1724,-3.1733,-3.1722,-3.1744,-3.1801,-3.1719,-3.1719,-3.1733,-3.186,-3.1876,-3.1887,-3.1788,-3.179,-3.1791,-3.1859,0,-3.1645,-3.1698,-3.1684,-3.1736,-3.1759,-3.1731,-3.1758,-3.1764,-3.176,-3.1779,-3.1774,-3.1796,-3.1768,-3.1773,-3.1794,-3.179,-3.1826,-3.1785,-3.1809,-3.181,-3.1806,-3.1898,-3.1915,-3.1979,-3.1868,-3.1869,-3.187,0,-3.1737,-3.175,-3.1805,-3.1806,-3.1815,-3.1839,-3.1852,-3.1871,-3.1877,-3.1872,-3.1882,-3.1865,-3.1894,-3.186,-3.1899,-3.1871,-3.188,-3.1879,-3.1881,-3.1882,-3.1843,-3.19,-3.1999,-3.2008,-3.1884,-3.1883,-3.1882,0,-3.1807,-3.1839,-3.1874,-3.188,-3.1882,-3.19,-3.1901,-3.1906,-3.1916,-3.1928,-3.1935,-3.195,-3.1959,-3.1971,-3.1958,-3.1934,-3.1998,-3.1963,-3.1994,-3.1994,-3.2008,-3.2007,-3.2108,-3.2017,-3.2017,-3.2017,-3.2016,0,-3.1889,-3.1923,-3.1905,-3.1928,-3.1964,-3.1947,-3.1984,-3.1982,-3.1986,-3.2006,-3.1984,-3.2003,-3.1986,-3.2004,-3.1995,-3.2027,-3.2032,-3.2028,-3.2025,-3.2029,-3.2029,-3.2034,-3.2028,-3.2019,-3.2019,-3.2018,-3.2018,0,-3.1973,-3.1963,-3.1999,-3.1998,-3.1999,-3.2025,-3.2024,-3.2044,-3.2038,-3.2064,-3.2069,-3.206,-3.208,-3.2068,-3.2089,-3.2082,-3.2124,-3.2116,-3.2122,-3.2119,-3.215,-3.2147,-3.2257,-3.2269,-3.2171,-3.2172,-3.2173,0,-3.2025,-3.205,-3.2051,-3.2062,-3.2065,-3.2085,-3.2095,-3.208,-3.2091,-3.2099,-3.2118,-3.2135,-3.2148,-3.2181,-3.2176,-3.2191,-3.2181,-3.2219,-3.2183,-3.2186,-3.218,-3.2177,-3.2179,-3.2226,-3.2227,-3.2228,-3.2228,0,-3.2117,-3.2111,-3.2126,-3.214,-3.2153,-3.2163,-3.2171,-3.2182,-3.2166,-3.218,-3.2199,-3.221,-3.223,-3.2247,-3.2259,-3.226,-3.2241,-3.224,-3.2247,-3.2251,-3.2253,-3.225,-3.2139,-3.2237,-3.2236,-3.2236,-3.2235,-3.2235,-3.2185,-3.2205,-3.2208,-3.2226,-3.223,-3.2238,-3.2256,-3.2252,-3.2268,-3.2282,-3.2272,-3.2295,-3.2298,-3.2313,-3.2316,-3.2333,-3.2318,-3.233,-3.2332,-3.2335,-3.2338,-3.2252,-3.2336,-3.2336,-3.2335,-3.2335,-3.2335,0,-3.2275,-3.2275,-3.2292,-3.2303,-3.2316,-3.2297,-3.2305,-3.2317,-3.2337,-3.2342,-3.2355,-3.2377,-3.2393,-3.2389,-3.2403,-3.2417,-3.2409,-3.2421,-3.2419,-3.2419,-3.2352,-3.2343,-3.2428,-3.2428,-3.2428,-3.2428,-3.2428,-3.2428,-3.2323,-3.2355,-3.2349,-3.2382,-3.2382,-3.2403,-3.2409,-3.2415,-3.2419,-3.2444,-3.2457,-3.2454,-3.2455,-3.2469,-3.2482,-3.248,-3.2486,-3.2501,-3.2496,-3.2433,-3.2424,-3.2415,-3.2407,-3.2503,-3.2503,-3.2562,-3.2562,-3.2563]}]]